Time,TemperatureF,DewpointF,PressureIn,WindDirection,WindDirectionDegrees,WindSpeedMPH,WindSpeedGustMPH,Humidity,HourlyPrecipIn,Conditions,Clouds,dailyrainin,SoftwareType,DateUTC
2013-08-28 00:00:00,74.1,71.3,30.00,West,262,0.0,0.0,91,0.00,,,0.00,Wunderground v.1.15,2013-08-28 04:00:00,
2013-08-28 00:05:00,73.9,71.1,30.00,West,262,0.0,0.0,91,0.00,,,0.00,Wunderground v.1.15,2013-08-28 04:05:00,
2013-08-28 00:10:00,73.9,71.4,30.00,West,262,0.0,0.0,92,0.00,,,0.00,Wunderground v.1.15,2013-08-28 04:10:00,
2013-08-28 00:15:00,73.8,71.3,30.00,West,262,0.0,0.0,92,0.00,,,0.00,Wunderground v.1.15,2013-08-28 04:15:00,
2013-08-28 00:20:00,73.8,71.3,30.00,West,262,0.0,0.0,92,0.00,,,0.00,Wunderground v.1.15,2013-08-28 04:20:00,
2013-08-28 00:25:00,73.7,71.2,30.00,West,262,0.0,0.0,92,0.00,,,0.00,Wunderground v.1.15,2013-08-28 04:25:00,
2013-08-28 00:30:00,73.6,71.1,30.00,West,262,0.0,0.0,92,0.00,,,0.00,Wunderground v.1.15,2013-08-28 04:30:00,
2013-08-28 00:35:00,73.4,70.9,29.99,West,262,0.0,0.0,92,0.00,,,0.00,Wunderground v.1.15,2013-08-28 04:35:00,
2013-08-28 00:40:00,73.3,70.8,29.99,West,262,0.0,0.0,92,0.00,,,0.00,Wunderground v.1.15,2013-08-28 04:40:00,
2013-08-28 00:45:00,73.2,71.1,29.99,West,262,0.0,0.0,93,0.00,,,0.00,Wunderground v.1.15,2013-08-28 04:45:00,
2013-08-28 00:50:00,73.2,71.1,29.99,West,262,0.0,0.0,93,0.00,,,0.00,Wunderground v.1.15,2013-08-28 04:50:00,
2013-08-28 01:00:00,72.9,70.8,29.99,West,262,0.0,0.0,93,0.00,,,0.00,Wunderground v.1.15,2013-08-28 05:00:00,
2013-08-28 01:05:00,72.9,70.8,29.99,West,262,0.0,0.0,93,0.00,,,0.00,Wunderground v.1.15,2013-08-28 05:05:00,
2013-08-28 01:15:00,72.8,71.0,29.99,West,262,0.0,0.0,94,0.00,,,0.00,Wunderground v.1.15,2013-08-28 05:15:00,
2013-08-28 01:20:00,72.8,71.0,29.99,West,262,0.0,0.0,94,0.00,,,0.00,Wunderground v.1.15,2013-08-28 05:20:00,
2013-08-28 01:25:00,72.7,70.9,29.99,West,262,0.0,0.0,94,0.00,,,0.00,Wunderground v.1.15,2013-08-28 05:25:00,
2013-08-28 01:35:00,72.6,70.8,29.98,West,262,0.0,0.0,94,0.00,,,0.00,Wunderground v.1.15,2013-08-28 05:35:00,
2013-08-28 01:40:00,72.6,70.8,29.98,West,262,0.0,0.0,94,0.00,,,0.00,Wunderground v.1.15,2013-08-28 05:40:00,
2013-08-28 01:45:00,72.6,70.8,29.98,West,262,0.0,0.0,94,0.00,,,0.00,Wunderground v.1.15,2013-08-28 05:45:00,
2013-08-28 01:50:00,72.6,70.8,29.98,West,262,0.0,0.0,94,0.00,,,0.00,Wunderground v.1.15,2013-08-28 05:50:00,
2013-08-28 01:55:00,72.5,70.7,29.98,West,262,0.0,0.0,94,0.00,,,0.00,Wunderground v.1.15,2013-08-28 05:55:00,
2013-08-28 02:00:00,72.5,70.7,29.98,West,262,0.0,0.0,94,0.00,,,0.00,Wunderground v.1.15,2013-08-28 06:00:00,
2013-08-28 02:05:00,72.4,70.6,29.98,West,262,0.0,0.0,94,0.00,,,0.00,Wunderground v.1.15,2013-08-28 06:05:00,
2013-08-28 02:15:00,72.3,70.8,29.98,West,262,0.0,0.0,95,0.00,,,0.00,Wunderground v.1.15,2013-08-28 06:15:00,
2013-08-28 02:20:00,72.2,70.7,29.98,West,262,0.0,0.0,95,0.00,,,0.00,Wunderground v.1.15,2013-08-28 06:20:00,
2013-08-28 02:25:00,72.2,70.7,29.97,West,262,0.0,0.0,95,0.00,,,0.00,Wunderground v.1.15,2013-08-28 06:25:00,
2013-08-28 02:35:00,72.1,70.6,29.97,West,262,0.0,0.0,95,0.00,,,0.00,Wunderground v.1.15,2013-08-28 06:35:00,
2013-08-28 02:40:00,72.1,70.6,29.97,West,262,0.0,0.0,95,0.00,,,0.00,Wunderground v.1.15,2013-08-28 06:40:00,
2013-08-28 02:45:00,72.1,70.6,29.97,West,262,0.0,0.0,95,0.00,,,0.00,Wunderground v.1.15,2013-08-28 06:45:00,
2013-08-28 02:50:00,72.1,70.6,29.97,West,262,0.0,0.0,95,0.00,,,0.00,Wunderground v.1.15,2013-08-28 06:50:00,
2013-08-28 02:55:00,72.1,70.6,29.97,West,262,0.0,0.0,95,0.00,,,0.00,Wunderground v.1.15,2013-08-28 06:55:00,
2013-08-28 03:00:00,72.0,70.5,29.97,West,262,0.0,0.0,95,0.00,,,0.00,Wunderground v.1.15,2013-08-28 07:00:00,
2013-08-28 03:05:00,72.0,70.5,29.97,West,262,0.0,0.0,95,0.00,,,0.00,Wunderground v.1.15,2013-08-28 07:05:00,
2013-08-28 03:15:00,71.9,70.4,29.97,West,262,0.0,0.0,95,0.00,,,0.00,Wunderground v.1.15,2013-08-28 07:15:00,
2013-08-28 03:20:00,71.9,70.4,29.96,West,262,0.0,0.0,95,0.00,,,0.00,Wunderground v.1.15,2013-08-28 07:20:00,
2013-08-28 03:25:00,71.8,70.3,29.96,West,262,0.0,0.0,95,0.00,,,0.00,Wunderground v.1.15,2013-08-28 07:25:00,
2013-08-28 03:30:00,71.7,70.2,29.96,West,262,0.0,0.0,95,0.00,,,0.00,Wunderground v.1.15,2013-08-28 07:30:00,
2013-08-28 03:40:00,71.6,70.4,29.96,West,262,0.0,0.0,96,0.00,,,0.00,Wunderground v.1.15,2013-08-28 07:40:00,
2013-08-28 03:45:00,71.5,70.0,29.96,West,262,0.0,0.0,95,0.00,,,0.00,Wunderground v.1.15,2013-08-28 07:45:00,
2013-08-28 03:50:00,71.4,69.9,29.96,West,262,0.0,0.0,95,0.00,,,0.00,Wunderground v.1.15,2013-08-28 07:50:00,
2013-08-28 03:55:00,71.3,69.8,29.96,West,262,0.0,0.0,95,0.00,,,0.00,Wunderground v.1.15,2013-08-28 07:55:00,
2013-08-28 04:00:00,71.3,70.1,29.95,West,262,0.0,0.0,96,0.00,,,0.00,Wunderground v.1.15,2013-08-28 08:00:00,
2013-08-28 04:05:00,71.3,70.1,29.95,West,262,0.0,0.0,96,0.00,,,0.00,Wunderground v.1.15,2013-08-28 08:05:00,
2013-08-28 04:15:00,71.2,70.0,29.95,West,262,0.0,0.0,96,0.00,,,0.00,Wunderground v.1.15,2013-08-28 08:15:00,
2013-08-28 04:20:00,71.2,70.0,29.95,West,262,0.0,0.0,96,0.00,,,0.00,Wunderground v.1.15,2013-08-28 08:20:00,
2013-08-28 04:25:00,71.2,70.0,29.95,West,262,0.0,0.0,96,0.00,,,0.00,Wunderground v.1.15,2013-08-28 08:25:00,
2013-08-28 04:30:00,71.2,70.0,29.95,West,262,0.0,0.0,96,0.00,,,0.00,Wunderground v.1.15,2013-08-28 08:30:00,
2013-08-28 04:40:00,71.2,70.0,29.95,West,262,0.0,0.0,96,0.00,,,0.00,Wunderground v.1.15,2013-08-28 08:40:00,
2013-08-28 04:45:00,71.1,69.9,29.95,West,262,0.0,0.0,96,0.00,,,0.00,Wunderground v.1.15,2013-08-28 08:45:00,
2013-08-28 04:50:00,71.1,69.9,29.95,West,262,0.0,0.0,96,0.00,,,0.00,Wunderground v.1.15,2013-08-28 08:50:00,
2013-08-28 04:55:00,71.0,69.8,29.95,West,262,0.0,0.0,96,0.00,,,0.00,Wunderground v.1.15,2013-08-28 08:55:00,
2013-08-28 05:00:00,70.9,69.7,29.95,West,262,0.0,0.0,96,0.00,,,0.00,Wunderground v.1.15,2013-08-28 09:00:00,
2013-08-28 05:05:00,70.9,69.7,29.95,West,262,0.0,0.0,96,0.00,,,0.00,Wunderground v.1.15,2013-08-28 09:05:00,
2013-08-28 05:15:00,70.9,69.7,29.95,West,262,0.0,0.0,96,0.00,,,0.00,Wunderground v.1.15,2013-08-28 09:15:00,
2013-08-28 05:20:00,70.8,69.6,29.95,West,262,0.0,0.0,96,0.00,,,0.00,Wunderground v.1.15,2013-08-28 09:20:00,
2013-08-28 05:25:00,70.7,69.5,29.95,West,262,0.0,0.0,96,0.00,,,0.00,Wunderground v.1.15,2013-08-28 09:25:00,
2013-08-28 05:30:00,70.7,69.5,29.96,West,262,0.0,0.0,96,0.00,,,0.00,Wunderground v.1.15,2013-08-28 09:30:00,
2013-08-28 05:40:00,70.8,69.9,29.96,West,262,0.0,0.0,97,0.00,,,0.00,Wunderground v.1.15,2013-08-28 09:40:00,
2013-08-28 05:45:00,70.7,69.5,29.96,West,262,0.0,0.0,96,0.00,,,0.00,Wunderground v.1.15,2013-08-28 09:45:00,
2013-08-28 05:50:00,70.7,69.8,29.96,West,262,0.0,0.0,97,0.00,,,0.00,Wunderground v.1.15,2013-08-28 09:50:00,
2013-08-28 05:55:00,70.7,69.8,29.96,West,262,0.0,0.0,97,0.00,,,0.00,Wunderground v.1.15,2013-08-28 09:55:00,
2013-08-28 06:00:00,70.7,69.8,29.96,West,262,0.0,0.0,97,0.00,,,0.00,Wunderground v.1.15,2013-08-28 10:00:00,
2013-08-28 06:05:00,70.6,69.7,29.96,West,262,0.0,0.0,97,0.00,,,0.00,Wunderground v.1.15,2013-08-28 10:05:00,
2013-08-28 06:15:00,70.5,69.6,29.96,West,262,0.0,0.0,97,0.00,,,0.00,Wunderground v.1.15,2013-08-28 10:15:00,
2013-08-28 06:20:00,70.4,69.5,29.96,West,262,0.0,0.0,97,0.00,,,0.00,Wunderground v.1.15,2013-08-28 10:20:00,
2013-08-28 06:25:00,70.3,69.4,29.97,West,262,0.0,0.0,97,0.00,,,0.00,Wunderground v.1.15,2013-08-28 10:25:00,
2013-08-28 06:30:00,70.3,69.4,29.97,West,262,0.0,0.0,97,0.00,,,0.00,Wunderground v.1.15,2013-08-28 10:30:00,
2013-08-28 06:35:00,70.3,69.4,29.97,West,262,0.0,0.0,97,0.00,,,0.00,Wunderground v.1.15,2013-08-28 10:35:00,
2013-08-28 06:40:00,70.3,69.4,29.97,West,262,0.0,0.0,97,0.00,,,0.00,Wunderground v.1.15,2013-08-28 10:40:00,
2013-08-28 06:45:00,70.3,69.4,29.97,West,262,0.0,0.0,97,0.00,,,0.00,Wunderground v.1.15,2013-08-28 10:45:00,
2013-08-28 06:50:00,70.3,69.4,29.97,West,262,0.0,0.0,97,0.00,,,0.00,Wunderground v.1.15,2013-08-28 10:50:00,
2013-08-28 06:55:00,70.5,69.6,29.97,West,262,0.0,0.0,97,0.00,,,0.00,Wunderground v.1.15,2013-08-28 10:55:00,
2013-08-28 07:00:00,70.6,69.7,29.97,West,262,0.0,0.0,97,0.00,,,0.00,Wunderground v.1.15,2013-08-28 11:00:00,
2013-08-28 07:05:00,70.7,69.8,29.97,West,262,0.0,0.0,97,0.00,,,0.00,Wunderground v.1.15,2013-08-28 11:05:00,
2013-08-28 07:15:00,70.9,70.0,29.97,West,262,0.0,0.0,97,0.00,,,0.00,Wunderground v.1.15,2013-08-28 11:15:00,
2013-08-28 07:20:00,71.1,70.2,29.97,West,262,0.0,0.0,97,0.00,,,0.00,Wunderground v.1.15,2013-08-28 11:20:00,
2013-08-28 07:25:00,71.2,70.3,29.97,West,262,0.0,0.0,97,0.00,,,0.00,Wunderground v.1.15,2013-08-28 11:25:00,
2013-08-28 07:30:00,71.5,70.6,29.98,West,262,0.0,0.0,97,0.00,,,0.00,Wunderground v.1.15,2013-08-28 11:30:00,
2013-08-28 07:35:00,71.7,70.8,29.98,West,262,0.0,0.0,97,0.00,,,0.00,Wunderground v.1.15,2013-08-28 11:35:00,
2013-08-28 07:40:00,71.9,71.3,29.98,West,262,0.0,0.0,98,0.00,,,0.00,Wunderground v.1.15,2013-08-28 11:40:00,
2013-08-28 07:45:00,72.2,71.3,29.98,West,262,0.0,0.0,97,0.00,,,0.00,Wunderground v.1.15,2013-08-28 11:45:00,
2013-08-28 07:50:00,72.3,71.4,29.98,West,262,0.0,0.0,97,0.00,,,0.00,Wunderground v.1.15,2013-08-28 11:50:00,
2013-08-28 07:55:00,72.5,71.9,29.99,West,262,0.0,0.0,98,0.00,,,0.00,Wunderground v.1.15,2013-08-28 11:55:00,
2013-08-28 08:00:00,72.8,71.9,29.98,West,262,0.0,0.0,97,0.00,,,0.00,Wunderground v.1.15,2013-08-28 12:00:00,
2013-08-28 08:05:00,73.0,72.4,29.98,West,262,0.0,0.0,98,0.00,,,0.00,Wunderground v.1.15,2013-08-28 12:05:00,
2013-08-28 08:15:00,73.3,72.4,29.98,West,262,0.0,0.0,97,0.00,,,0.00,Wunderground v.1.15,2013-08-28 12:15:00,
2013-08-28 08:20:00,73.3,72.4,29.98,West,262,0.0,0.0,97,0.00,,,0.00,Wunderground v.1.15,2013-08-28 12:20:00,
2013-08-28 08:25:00,73.5,72.6,29.98,West,262,0.0,0.0,97,0.00,,,0.00,Wunderground v.1.15,2013-08-28 12:25:00,
2013-08-28 08:30:00,73.7,72.8,29.98,West,262,0.0,0.0,97,0.00,,,0.00,Wunderground v.1.15,2013-08-28 12:30:00,
2013-08-28 08:35:00,73.9,73.0,29.98,West,262,0.0,0.0,97,0.00,,,0.00,Wunderground v.1.15,2013-08-28 12:35:00,
2013-08-28 08:40:00,74.0,72.8,29.98,West,262,0.0,0.0,96,0.00,,,0.00,Wunderground v.1.15,2013-08-28 12:40:00,
2013-08-28 08:45:00,74.2,73.0,29.98,West,262,0.0,0.0,96,0.00,,,0.00,Wunderground v.1.15,2013-08-28 12:45:00,
2013-08-28 08:50:00,74.6,73.4,29.98,West,262,0.0,0.0,96,0.00,,,0.00,Wunderground v.1.15,2013-08-28 12:50:00,
2013-08-28 08:55:00,74.9,73.4,29.98,West,262,0.0,0.0,95,0.00,,,0.00,Wunderground v.1.15,2013-08-28 12:55:00,
2013-08-28 09:00:00,75.1,73.3,29.98,West,262,0.0,2.0,94,0.00,,,0.00,Wunderground v.1.15,2013-08-28 13:00:00,
2013-08-28 09:05:00,75.3,73.1,29.98,West,262,0.0,2.0,93,0.00,,,0.00,Wunderground v.1.15,2013-08-28 13:05:00,
2013-08-28 09:15:00,75.6,73.1,29.98,West,262,1.0,1.0,92,0.00,,,0.00,Wunderground v.1.15,2013-08-28 13:15:00,
2013-08-28 09:25:00,76.2,73.7,29.98,West,262,0.0,2.0,92,0.00,,,0.00,Wunderground v.1.15,2013-08-28 13:25:00,
2013-08-28 09:30:00,76.4,73.6,29.98,West,262,1.0,1.0,91,0.00,,,0.00,Wunderground v.1.15,2013-08-28 13:30:00,
2013-08-28 09:35:00,76.6,73.4,29.98,West,262,1.0,1.0,90,0.00,,,0.00,Wunderground v.1.15,2013-08-28 13:35:00,
2013-08-28 09:40:00,76.8,73.6,29.99,West,262,1.0,1.0,90,0.00,,,0.00,Wunderground v.1.15,2013-08-28 13:40:00,
2013-08-28 09:45:00,77.0,73.8,29.99,West,276,1.0,1.0,90,0.00,,,0.00,Wunderground v.1.15,2013-08-28 13:45:00,
2013-08-28 09:50:00,77.3,73.8,29.99,West,276,1.0,1.0,89,0.00,,,0.00,Wunderground v.1.15,2013-08-28 13:50:00,
2013-08-28 09:55:00,77.5,74.0,30.00,West,276,1.0,1.0,89,0.00,,,0.00,Wunderground v.1.15,2013-08-28 13:55:00,
2013-08-28 10:00:00,77.7,73.9,29.99,East,90,1.0,1.0,88,0.00,,,0.00,Wunderground v.1.15,2013-08-28 14:00:00,
2013-08-28 10:05:00,77.8,73.6,30.00,NNE,18,0.0,1.0,87,0.00,,,0.00,Wunderground v.1.15,2013-08-28 14:05:00,
2013-08-28 10:15:00,78.2,73.7,30.00,West,268,1.0,1.0,86,0.00,,,0.00,Wunderground v.1.15,2013-08-28 14:15:00,
2013-08-28 10:25:00,78.8,74.3,30.00,West,261,1.0,1.0,86,0.00,,,0.00,Wunderground v.1.15,2013-08-28 14:25:00,
2013-08-28 10:30:00,79.0,74.1,30.00,West,260,1.0,1.0,85,0.00,,,0.00,Wunderground v.1.15,2013-08-28 14:30:00,
2013-08-28 10:35:00,79.3,74.0,30.00,West,263,1.0,1.0,84,0.00,,,0.00,Wunderground v.1.15,2013-08-28 14:35:00,
2013-08-28 10:40:00,79.5,74.2,30.00,West,263,0.0,0.0,84,0.00,,,0.00,Wunderground v.1.15,2013-08-28 14:40:00,
2013-08-28 10:45:00,79.7,74.1,30.00,West,277,1.0,1.0,83,0.00,,,0.00,Wunderground v.1.15,2013-08-28 14:45:00,
2013-08-28 10:50:00,79.8,73.8,30.00,SSW,206,1.0,1.0,82,0.00,,,0.00,Wunderground v.1.15,2013-08-28 14:50:00,
2013-08-28 11:00:00,80.1,74.1,30.00,SW,234,1.0,1.0,82,0.00,,,0.00,Wunderground v.1.15,2013-08-28 15:00:00,
2013-08-28 11:05:00,80.2,73.8,30.00,SW,236,1.0,1.0,81,0.00,,,0.00,Wunderground v.1.15,2013-08-28 15:05:00,
2013-08-28 11:15:00,80.6,74.6,30.00,WSW,242,1.0,2.0,82,0.00,,,0.00,Wunderground v.1.15,2013-08-28 15:15:00,
2013-08-28 11:20:00,80.8,74.0,30.00,WSW,242,0.0,3.0,80,0.00,,,0.00,Wunderground v.1.15,2013-08-28 15:20:00,
2013-08-28 11:30:00,81.0,74.2,30.00,WSW,254,2.0,2.0,80,0.00,,,0.00,Wunderground v.1.15,2013-08-28 15:30:00,
2013-08-28 11:35:00,81.1,74.3,30.00,WSW,253,1.0,2.0,80,0.00,,,0.00,Wunderground v.1.15,2013-08-28 15:35:00,
2013-08-28 11:40:00,81.4,74.6,30.00,WSW,246,1.0,1.0,80,0.00,,,0.00,Wunderground v.1.15,2013-08-28 15:40:00,
2013-08-28 11:45:00,81.7,74.5,30.00,West,274,1.0,1.0,79,0.00,,,0.00,Wunderground v.1.15,2013-08-28 15:45:00,
2013-08-28 11:50:00,81.9,74.7,30.00,West,269,1.0,1.0,79,0.00,,,0.00,Wunderground v.1.15,2013-08-28 15:50:00,
2013-08-28 12:00:00,82.0,74.5,30.00,WSW,249,2.0,3.0,78,0.00,,,0.00,Wunderground v.1.15,2013-08-28 16:00:00,
2013-08-28 12:05:00,81.9,74.4,30.00,WSW,253,2.0,3.0,78,0.00,,,0.00,Wunderground v.1.15,2013-08-28 16:05:00,
2013-08-28 12:15:00,81.7,74.5,30.00,West,271,2.0,3.0,79,0.00,,,0.00,Wunderground v.1.15,2013-08-28 16:15:00,
2013-08-28 12:20:00,81.8,74.6,30.00,West,272,1.0,6.0,79,0.00,,,0.00,Wunderground v.1.15,2013-08-28 16:20:00,
2013-08-28 12:30:00,81.7,74.5,29.99,West,274,2.0,2.0,79,0.00,,,0.00,Wunderground v.1.15,2013-08-28 16:30:00,
2013-08-28 12:35:00,81.7,74.5,29.99,West,274,1.0,2.0,79,0.00,,,0.00,Wunderground v.1.15,2013-08-28 16:35:00,
2013-08-28 12:40:00,81.7,74.9,29.99,West,274,0.0,0.0,80,0.00,,,0.00,Wunderground v.1.15,2013-08-28 16:40:00,
2013-08-28 12:45:00,81.7,74.9,29.99,West,274,0.0,0.0,80,0.00,,,0.00,Wunderground v.1.15,2013-08-28 16:45:00,
2013-08-28 12:50:00,81.5,74.4,29.99,West,274,1.0,1.0,79,0.00,,,0.00,Wunderground v.1.15,2013-08-28 16:50:00,
2013-08-28 12:55:00,81.4,74.6,29.99,West,274,1.0,1.0,80,0.00,,,0.00,Wunderground v.1.15,2013-08-28 16:55:00,
2013-08-28 13:05:00,81.2,74.4,29.99,West,274,1.0,1.0,80,0.00,,,0.00,Wunderground v.1.15,2013-08-28 17:05:00,
2013-08-28 13:15:00,81.2,74.8,29.99,West,274,0.0,1.0,81,0.00,,,0.00,Wunderground v.1.15,2013-08-28 17:15:00,
2013-08-28 13:20:00,81.2,74.8,29.99,West,274,0.0,0.0,81,0.00,,,0.00,Wunderground v.1.15,2013-08-28 17:20:00,
2013-08-28 13:25:00,81.2,75.2,29.99,West,274,0.0,0.0,82,0.00,,,0.00,Wunderground v.1.15,2013-08-28 17:25:00,
2013-08-28 13:30:00,81.0,74.6,29.99,West,274,0.0,0.0,81,0.00,,,0.00,Wunderground v.1.15,2013-08-28 17:30:00,
2013-08-28 13:35:00,81.0,75.3,29.99,West,274,0.0,0.0,83,0.00,,,0.00,Wunderground v.1.15,2013-08-28 17:35:00,
2013-08-28 13:40:00,80.9,75.2,29.99,West,274,0.0,0.0,83,0.00,,,0.00,Wunderground v.1.15,2013-08-28 17:40:00,
2013-08-28 13:45:00,80.8,75.2,29.99,West,274,0.0,0.0,83,0.00,,,0.00,Wunderground v.1.15,2013-08-28 17:45:00,
2013-08-28 13:50:00,80.8,75.5,29.98,West,274,0.0,0.0,84,0.00,,,0.00,Wunderground v.1.15,2013-08-28 17:50:00,
2013-08-28 13:55:00,80.8,75.5,29.98,West,274,0.0,0.0,84,0.00,,,0.00,Wunderground v.1.15,2013-08-28 17:55:00,
2013-08-28 14:05:00,80.9,76.3,29.98,West,274,0.0,0.0,86,0.00,,,0.00,Wunderground v.1.15,2013-08-28 18:05:00,
2013-08-28 14:15:00,80.9,75.6,29.97,West,274,0.0,0.0,84,0.00,,,0.00,Wunderground v.1.15,2013-08-28 18:15:00,
2013-08-28 14:20:00,80.9,75.2,29.97,West,274,0.0,0.0,83,0.00,,,0.00,Wunderground v.1.15,2013-08-28 18:20:00,
2013-08-28 14:25:00,80.9,75.6,29.97,West,274,0.0,0.0,84,0.00,,,0.00,Wunderground v.1.15,2013-08-28 18:25:00,
2013-08-28 14:30:00,80.7,75.4,29.97,West,274,0.0,0.0,84,0.00,,,0.00,Wunderground v.1.15,2013-08-28 18:30:00,
2013-08-28 14:35:00,80.5,75.2,29.96,West,274,0.0,0.0,84,0.00,,,0.00,Wunderground v.1.15,2013-08-28 18:35:00,
2013-08-28 14:40:00,80.5,75.6,29.96,West,274,0.0,0.0,85,0.00,,,0.00,Wunderground v.1.15,2013-08-28 18:40:00,
2013-08-28 14:45:00,80.7,76.1,29.96,West,274,0.0,0.0,86,0.00,,,0.00,Wunderground v.1.15,2013-08-28 18:45:00,
2013-08-28 14:50:00,80.7,76.1,29.96,West,274,0.0,0.0,86,0.00,,,0.00,Wunderground v.1.15,2013-08-28 18:50:00,
2013-08-28 14:55:00,80.8,76.2,29.96,West,274,0.0,0.0,86,0.00,,,0.00,Wunderground v.1.15,2013-08-28 18:55:00,
2013-08-28 15:00:00,80.7,75.4,29.96,West,274,0.0,5.0,84,0.00,,,0.00,Wunderground v.1.15,2013-08-28 19:00:00,
2013-08-28 15:05:00,80.6,75.3,29.96,West,274,0.0,5.0,84,0.00,,,0.00,Wunderground v.1.15,2013-08-28 19:05:00,
2013-08-28 15:15:00,80.5,75.9,29.95,West,274,0.0,0.0,86,0.00,,,0.00,Wunderground v.1.15,2013-08-28 19:15:00,
2013-08-28 15:20:00,80.5,75.9,29.95,West,274,0.0,0.0,86,0.00,,,0.00,Wunderground v.1.15,2013-08-28 19:20:00,
2013-08-28 15:25:00,80.4,75.8,29.95,West,274,0.0,0.0,86,0.00,,,0.00,Wunderground v.1.15,2013-08-28 19:25:00,
2013-08-28 15:30:00,80.4,76.2,29.95,West,274,0.0,0.0,87,0.00,,,0.00,Wunderground v.1.15,2013-08-28 19:30:00,
2013-08-28 15:40:00,80.6,76.4,29.95,West,274,0.0,0.0,87,0.00,,,0.00,Wunderground v.1.15,2013-08-28 19:40:00,
2013-08-28 15:45:00,80.7,76.5,29.95,West,274,0.0,0.0,87,0.00,,,0.00,Wunderground v.1.15,2013-08-28 19:45:00,
2013-08-28 15:55:00,80.5,75.6,29.95,West,274,0.0,0.0,85,0.00,,,0.00,Wunderground v.1.15,2013-08-28 19:55:00,
2013-08-28 16:00:00,80.5,76.3,29.95,West,274,0.0,0.0,87,0.00,,,0.00,Wunderground v.1.15,2013-08-28 20:00:00,
2013-08-28 16:05:00,80.4,75.8,29.95,West,274,0.0,0.0,86,0.00,,,0.00,Wunderground v.1.15,2013-08-28 20:05:00,
2013-08-28 16:15:00,80.3,75.7,29.94,West,274,0.0,0.0,86,0.00,,,0.00,Wunderground v.1.15,2013-08-28 20:15:00,
2013-08-28 16:20:00,80.2,76.3,29.95,West,274,0.0,0.0,88,0.00,,,0.00,Wunderground v.1.15,2013-08-28 20:20:00,
2013-08-28 16:25:00,79.9,76.0,29.94,West,274,0.0,0.0,88,0.00,,,0.00,Wunderground v.1.15,2013-08-28 20:25:00,
2013-08-28 16:30:00,79.9,76.4,29.94,West,274,0.0,0.0,89,0.00,,,0.00,Wunderground v.1.15,2013-08-28 20:30:00,
2013-08-28 16:35:00,79.8,76.3,29.94,West,274,0.0,0.0,89,0.00,,,0.00,Wunderground v.1.15,2013-08-28 20:35:00,
2013-08-28 16:45:00,79.5,76.3,29.93,West,274,0.0,0.0,90,0.00,,,0.00,Wunderground v.1.15,2013-08-28 20:45:00,
2013-08-28 16:50:00,79.4,76.2,29.93,West,274,0.0,0.0,90,0.00,,,0.00,Wunderground v.1.15,2013-08-28 20:50:00,
2013-08-28 16:55:00,79.2,76.0,29.93,West,274,0.0,0.0,90,0.00,,,0.00,Wunderground v.1.15,2013-08-28 20:55:00,
2013-08-28 17:00:00,79.1,76.2,29.93,West,274,0.0,0.0,91,0.00,,,0.00,Wunderground v.1.15,2013-08-28 21:00:00,
2013-08-28 17:05:00,79.0,76.1,29.93,West,274,0.0,0.0,91,0.00,,,0.00,Wunderground v.1.15,2013-08-28 21:05:00,
2013-08-28 17:10:00,78.9,76.0,29.93,West,274,0.0,0.0,91,0.00,,,0.00,Wunderground v.1.15,2013-08-28 21:10:00,
2013-08-28 17:15:00,78.8,75.9,29.92,West,274,0.0,0.0,91,0.00,,,0.00,Wunderground v.1.15,2013-08-28 21:15:00,
2013-08-28 17:20:00,78.7,75.8,29.92,West,274,0.0,0.0,91,0.00,,,0.00,Wunderground v.1.15,2013-08-28 21:20:00,
2013-08-28 17:25:00,78.8,75.9,29.92,West,274,0.0,0.0,91,0.00,,,0.00,Wunderground v.1.15,2013-08-28 21:25:00,
2013-08-28 17:30:00,78.8,75.9,29.93,West,274,0.0,0.0,91,0.00,,,0.00,Wunderground v.1.15,2013-08-28 21:30:00,
2013-08-28 17:35:00,78.8,75.9,29.93,West,274,0.0,0.0,91,0.00,,,0.00,Wunderground v.1.15,2013-08-28 21:35:00,
2013-08-28 17:45:00,78.7,76.2,29.93,West,274,0.0,0.0,92,0.00,,,0.00,Wunderground v.1.15,2013-08-28 21:45:00,
2013-08-28 17:50:00,78.6,76.1,29.93,West,274,0.0,0.0,92,0.00,,,0.00,Wunderground v.1.15,2013-08-28 21:50:00,
2013-08-28 17:55:00,78.5,76.0,29.93,West,274,0.0,0.0,92,0.00,,,0.00,Wunderground v.1.15,2013-08-28 21:55:00,
2013-08-28 18:00:00,78.4,76.2,29.93,West,274,0.0,0.0,93,0.00,,,0.00,Wunderground v.1.15,2013-08-28 22:00:00,
2013-08-28 18:05:00,78.2,76.0,29.93,West,274,0.0,0.0,93,0.00,,,0.00,Wunderground v.1.15,2013-08-28 22:05:00,
2013-08-28 18:15:00,77.9,76.0,29.93,West,274,0.0,0.0,94,0.00,,,0.00,Wunderground v.1.15,2013-08-28 22:15:00,
2013-08-28 18:20:00,77.8,75.9,29.93,West,274,0.0,0.0,94,0.00,,,0.00,Wunderground v.1.15,2013-08-28 22:20:00,
2013-08-28 18:25:00,77.8,75.9,29.93,West,274,0.0,0.0,94,0.00,,,0.00,Wunderground v.1.15,2013-08-28 22:25:00,
2013-08-28 18:30:00,77.8,75.9,29.93,West,274,0.0,0.0,94,0.00,,,0.00,Wunderground v.1.15,2013-08-28 22:30:00,
2013-08-28 18:35:00,77.8,75.9,29.93,West,274,0.0,0.0,94,0.00,,,0.00,Wunderground v.1.15,2013-08-28 22:35:00,
2013-08-28 18:40:00,77.8,75.9,29.93,West,274,0.0,0.0,94,0.00,,,0.00,Wunderground v.1.15,2013-08-28 22:40:00,
2013-08-28 18:50:00,77.7,76.2,29.92,West,274,0.0,0.0,95,0.00,,,0.00,Wunderground v.1.15,2013-08-28 22:50:00,
2013-08-28 18:55:00,77.7,76.2,29.92,West,274,0.0,0.0,95,0.00,,,0.00,Wunderground v.1.15,2013-08-28 22:55:00,
2013-08-28 19:00:00,77.6,76.1,29.92,West,274,0.0,0.0,95,0.00,,,0.00,Wunderground v.1.15,2013-08-28 23:00:00,
2013-08-28 19:05:00,77.7,76.2,29.92,West,274,0.0,0.0,95,0.00,,,0.00,Wunderground v.1.15,2013-08-28 23:05:00,
2013-08-28 19:15:00,77.7,76.2,29.92,West,274,0.0,0.0,95,0.00,,,0.00,Wunderground v.1.15,2013-08-28 23:15:00,
2013-08-28 19:20:00,77.7,75.8,29.92,West,274,0.0,0.0,94,0.00,,,0.00,Wunderground v.1.15,2013-08-28 23:20:00,
2013-08-28 19:25:00,77.7,75.8,29.92,West,274,0.0,0.0,94,0.00,,,0.00,Wunderground v.1.15,2013-08-28 23:25:00,
2013-08-28 19:30:00,77.7,75.8,29.92,West,274,0.0,0.0,94,0.00,,,0.00,Wunderground v.1.15,2013-08-28 23:30:00,
2013-08-28 19:35:00,77.7,75.8,29.92,West,274,0.0,0.0,94,0.00,,,0.00,Wunderground v.1.15,2013-08-28 23:35:00,
2013-08-28 19:40:00,77.6,75.7,29.92,West,274,0.0,0.0,94,0.00,,,0.00,Wunderground v.1.15,2013-08-28 23:40:00,
2013-08-28 19:45:00,77.6,75.7,29.92,West,274,0.0,0.0,94,0.00,,,0.00,Wunderground v.1.15,2013-08-28 23:45:00,
2013-08-28 19:50:00,77.6,75.7,29.92,West,274,0.0,0.0,94,0.00,,,0.00,Wunderground v.1.15,2013-08-28 23:50:00,
2013-08-28 19:55:00,77.6,75.7,29.92,West,274,0.0,0.0,94,0.00,,,0.00,Wunderground v.1.15,2013-08-28 23:55:00,
2013-08-28 20:00:00,77.6,75.7,29.92,West,274,0.0,0.0,94,0.00,,,0.00,Wunderground v.1.15,2013-08-29 00:00:00,
2013-08-28 20:05:00,77.5,75.6,29.92,West,274,0.0,0.0,94,0.00,,,0.00,Wunderground v.1.15,2013-08-29 00:05:00,
2013-08-28 20:15:00,77.5,75.6,29.92,West,274,0.0,0.0,94,0.00,,,0.00,Wunderground v.1.15,2013-08-29 00:15:00,
2013-08-28 20:25:00,77.5,75.3,29.91,West,274,0.0,0.0,93,0.00,,,0.00,Wunderground v.1.15,2013-08-29 00:25:00,
2013-08-28 20:30:00,77.4,75.2,29.92,West,274,0.0,0.0,93,0.00,,,0.00,Wunderground v.1.15,2013-08-29 00:30:00,
2013-08-28 20:35:00,77.4,75.5,29.92,West,274,0.0,0.0,94,0.00,,,0.00,Wunderground v.1.15,2013-08-29 00:35:00,
2013-08-28 20:40:00,77.3,75.1,29.92,West,274,0.0,0.0,93,0.00,,,0.00,Wunderground v.1.15,2013-08-29 00:40:00,
2013-08-28 20:45:00,77.3,75.1,29.92,West,274,0.0,0.0,93,0.00,,,0.00,Wunderground v.1.15,2013-08-29 00:45:00,
2013-08-28 20:50:00,77.3,75.1,29.92,West,274,0.0,0.0,93,0.00,,,0.00,Wunderground v.1.15,2013-08-29 00:50:00,
2013-08-28 20:55:00,77.2,75.3,29.92,West,274,0.0,0.0,94,0.00,,,0.00,Wunderground v.1.15,2013-08-29 00:55:00,
2013-08-28 21:00:00,77.2,75.3,29.92,West,274,0.0,0.0,94,0.00,,,0.00,Wunderground v.1.15,2013-08-29 01:00:00,
2013-08-28 21:05:00,77.1,75.2,29.91,West,274,0.0,0.0,94,0.00,,,0.00,Wunderground v.1.15,2013-08-29 01:05:00,
2013-08-28 21:15:00,77.0,75.1,29.91,West,274,0.0,0.0,94,0.00,,,0.00,Wunderground v.1.15,2013-08-29 01:15:00,
2013-08-28 21:25:00,77.0,74.8,29.91,West,274,0.0,0.0,93,0.00,,,0.00,Wunderground v.1.15,2013-08-29 01:25:00,
2013-08-28 21:30:00,77.0,74.8,29.91,West,274,0.0,0.0,93,0.00,,,0.00,Wunderground v.1.15,2013-08-29 01:30:00,
2013-08-28 21:35:00,77.0,74.8,29.92,West,274,0.0,0.0,93,0.00,,,0.00,Wunderground v.1.15,2013-08-29 01:35:00,
2013-08-28 21:40:00,77.0,74.8,29.92,West,274,0.0,0.0,93,0.00,,,0.00,Wunderground v.1.15,2013-08-29 01:40:00,
2013-08-28 21:45:00,77.0,74.8,29.92,West,274,0.0,0.0,93,0.00,,,0.00,Wunderground v.1.15,2013-08-29 01:45:00,
2013-08-28 21:50:00,77.1,74.9,29.92,West,274,0.0,0.0,93,0.00,,,0.00,Wunderground v.1.15,2013-08-29 01:50:00,
2013-08-28 22:00:00,77.1,74.6,29.92,West,274,0.0,0.0,92,0.00,,,0.00,Wunderground v.1.15,2013-08-29 02:00:00,
2013-08-28 22:05:00,77.1,74.6,29.92,West,274,0.0,0.0,92,0.00,,,0.00,Wunderground v.1.15,2013-08-29 02:05:00,
2013-08-28 22:15:00,77.1,74.6,29.92,West,274,0.0,0.0,92,0.00,,,0.00,Wunderground v.1.15,2013-08-29 02:15:00,
2013-08-28 22:20:00,77.0,74.5,29.92,West,274,0.0,0.0,92,0.00,,,0.00,Wunderground v.1.15,2013-08-29 02:20:00,
2013-08-28 22:25:00,77.0,74.5,29.91,West,274,0.0,0.0,92,0.00,,,0.00,Wunderground v.1.15,2013-08-29 02:25:00,
2013-08-28 22:30:00,76.9,74.4,29.91,West,274,0.0,0.0,92,0.00,,,0.00,Wunderground v.1.15,2013-08-29 02:30:00,
2013-08-28 22:35:00,76.9,74.4,29.91,West,274,0.0,0.0,92,0.00,,,0.00,Wunderground v.1.15,2013-08-29 02:35:00,
2013-08-28 22:40:00,76.9,74.4,29.91,West,274,0.0,0.0,92,0.00,,,0.00,Wunderground v.1.15,2013-08-29 02:40:00,
2013-08-28 22:45:00,77.0,74.2,29.91,West,274,0.0,0.0,91,0.00,,,0.00,Wunderground v.1.15,2013-08-29 02:45:00,
2013-08-28 22:50:00,76.9,74.1,29.90,West,274,0.0,0.0,91,0.00,,,0.00,Wunderground v.1.15,2013-08-29 02:50:00,
2013-08-28 23:00:00,76.9,74.1,29.89,WSW,242,2.0,2.0,91,0.00,,,0.00,Wunderground v.1.15,2013-08-29 03:00:00,
2013-08-28 23:05:00,77.0,74.2,29.89,SW,234,2.0,2.0,91,0.00,,,0.00,Wunderground v.1.15,2013-08-29 03:05:00,
2013-08-28 23:15:00,77.1,73.9,29.90,SW,214,1.0,7.0,90,0.00,,,0.00,Wunderground v.1.15,2013-08-29 03:15:00,
2013-08-28 23:20:00,77.3,74.1,29.89,SSW,198,2.0,5.0,90,0.00,,,0.00,Wunderground v.1.15,2013-08-29 03:20:00,
2013-08-28 23:25:00,77.4,74.2,29.89,SSW,196,2.0,5.0,90,0.00,,,0.00,Wunderground v.1.15,2013-08-29 03:25:00,
2013-08-28 23:35:00,77.7,74.2,29.89,SSW,208,3.0,3.0,89,0.00,,,0.00,Wunderground v.1.15,2013-08-29 03:35:00,
2013-08-28 23:45:00,77.7,74.2,29.89,SSW,213,2.0,2.0,89,0.00,,,0.00,Wunderground v.1.15,2013-08-29 03:45:00,
2013-08-28 23:50:00,77.8,74.3,29.89,SSW,209,4.0,4.0,89,0.00,,,0.00,Wunderground v.1.15,2013-08-29 03:50:00,